Weather History for Richlands, VA

Change the Weather History Date:

Saturday, March 30, 2013

  Actual Average (KBLF) Record (KBLF)
Temperature  
Mean Temperature 43 °F 50 °F  
Max Temperature 54 °F 59 °F 83 °F (1985)
Min Temperature 32 °F 40 °F 9 °F (1964)
Degree Days  
Heating Degree Days 22 16  
Month to date heating degree days 601  
Since 1 July heating degree days 4094  
Cooling Degree Days 0 0  
Month to date cooling degree days 0  
Year to date cooling degree days 0  
Moisture  
Dew Point 32 °F    
Average Humidity 68    
Maximum Humidity 100    
Minimum Humidity 42    
Precipitation  
Precipitation 0.00 in 0.11 in 0.98 in (1987)
Month to date precipitation 3.40  
Year to date precipitation 9.06  
Snow  
Snow 0.00 in - - ()
Month to date snowfall  
Since 1 July snowfall  
Snow Depth -    
Sea Level Pressure  
Sea Level Pressure 30.14 in    
Wind  
Wind Speed 2 mph (SSW)    
Max Wind Speed 12 mph    
Max Gust Speed -    
Visibility 9 miles    
Events      
T = Trace of Precipitation, MM = Missing Value Source: NWS Daily Summary

Daily Weather History Graph

Daily Weather History Graph

Search for Another Location

Airport:

Trip Planner

Search our weather history database for the weather conditions in past years. The results will help you decide how hot, cold, wet, or windy it might be!

Date:

Astronomy

Mar. 30, 2013 Rise Set
Actual Time 7:15 AM EDT 7:48 PM EDT
Civil Twilight 6:49 AM EDT 8:14 PM EDT
Nautical Twilight 6:18 AM EDT 8:45 PM EDT
Astronomical Twilight 5:47 AM EDT 9:16 PM EDT
Moon 11:47 PM EDT (3/30) 9:14 AM EDT (3/30)
Length of Visible Light 13h 24m
Length of Day
12h 32m
Waning Gibbous, 86% of the Moon is Illuminated
Mar 30
Waning Gibbous
Apr 3
Last Quarter
Apr 10
New
Apr 18
First Quarter
Apr 25
Full

Hourly Weather History & Observations

Time (EDT) Temp. Windchill Dew Point Humidity Pressure Visibility Wind Dir Wind Speed Gust Speed Precip Events Conditions
12:15 AM 35.6 °F 31.7 °F 33.1 °F 91% 30.21 in 10.0 mi WSW 4.6 mph - N/A   Clear
12:35 AM 35.2 °F 31.2 °F 32.9 °F 91% 30.21 in 10.0 mi WSW 4.6 mph - N/A   Clear
12:55 AM 34.9 °F - 32.9 °F 92% 30.20 in 10.0 mi Calm Calm - N/A   Scattered Clouds
1:15 AM 34.7 °F - 33.1 °F 94% 30.20 in 10.0 mi Calm Calm - N/A   Mostly Cloudy
1:35 AM 33.8 °F - 32.9 °F 96% 30.20 in 7.0 mi Calm Calm - N/A   Scattered Clouds
1:55 AM 34.0 °F - 33.1 °F 96% 30.20 in 7.0 mi Calm Calm - N/A   Clear
2:15 AM 34.0 °F - 33.1 °F 96% 30.19 in 7.0 mi Calm Calm - N/A   Scattered Clouds
2:35 AM 34.7 °F - 33.3 °F 94% 30.19 in 10.0 mi Calm Calm - N/A   Scattered Clouds
2:55 AM 34.9 °F - 33.4 °F 94% 30.19 in 10.0 mi Calm Calm - N/A   Mostly Cloudy
3:15 AM 34.7 °F - 33.3 °F 94% 30.19 in 10.0 mi Calm Calm - N/A   Overcast
3:35 AM 33.8 °F - 32.9 °F 96% 30.19 in 7.0 mi Calm Calm - N/A   Overcast
3:55 AM 33.8 °F - 32.9 °F 96% 30.18 in 7.0 mi Calm Calm - N/A   Overcast
4:15 AM 33.1 °F - 32.4 °F 97% 30.18 in 5.0 mi Calm Calm - N/A   Mostly Cloudy
4:35 AM 32.4 °F - 32.0 °F 99% 30.18 in 4.0 mi Calm Calm - N/A   Scattered Clouds
4:55 AM 32.7 °F - 32.4 °F 99% 30.17 in 4.0 mi Calm Calm - N/A   Clear
5:15 AM 32.2 °F - 32.0 °F 99% 30.17 in 4.0 mi Calm Calm - N/A   Clear
5:35 AM 32.2 °F - 32.0 °F 99% 30.17 in 3.0 mi Calm Calm - N/A   Clear
5:55 AM 32.5 °F - 32.2 °F 99% 30.18 in 4.0 mi Calm Calm - N/A   Mostly Cloudy
6:15 AM 32.9 °F - 32.7 °F 99% 30.18 in 5.0 mi Calm Calm - N/A   Scattered Clouds
6:35 AM 32.9 °F - 32.5 °F 99% 30.18 in 5.0 mi Calm Calm - N/A   Clear
7:15 AM 32.0 °F - 32.0 °F 100% 30.18 in 3.0 mi Calm Calm - N/A   Clear
7:35 AM 32.4 °F - 32.0 °F 99% 30.19 in 5.0 mi Calm Calm - N/A   Clear
7:55 AM 33.1 °F - 32.5 °F 98% 30.19 in 5.0 mi Calm Calm - N/A   Clear
8:15 AM 33.8 °F - 33.1 °F 97% 30.20 in 4.0 mi Calm Calm - N/A   Clear
8:35 AM 34.9 °F - 33.8 °F 96% 30.20 in 7.0 mi Calm Calm - N/A   Clear
9:15 AM 34.9 °F - 33.6 °F 95% 30.21 in 7.0 mi Calm Calm - N/A   Clear
9:35 AM 38.1 °F - 34.7 °F 87% 30.21 in 10.0 mi Calm Calm - N/A   Clear
9:55 AM 38.8 °F 36.5 °F 33.3 °F 80% 30.20 in 10.0 mi NNE 3.5 mph - N/A   Clear
10:15 AM 41.2 °F - 34.7 °F 78% 30.20 in 10.0 mi Calm Calm - N/A   Clear
10:35 AM 41.9 °F 39.0 °F 34.3 °F 75% 30.19 in 10.0 mi NNE 4.6 mph - N/A   Clear
10:55 AM 45.0 °F 40.6 °F 31.8 °F 60% 30.18 in 10.0 mi ESE 8.1 mph - N/A   Clear
11:15 AM 46.9 °F - 31.8 °F 56% 30.18 in 10.0 mi Calm Calm - N/A   Clear
11:35 AM 48.4 °F - 30.9 °F 51% 30.17 in 10.0 mi SE 5.8 mph - N/A   Clear
11:55 AM 48.6 °F - 30.4 °F 50% 30.16 in 10.0 mi SE 4.6 mph - N/A   Clear
12:15 PM 49.6 °F - 29.7 °F 46% 30.17 in 10.0 mi South 4.6 mph - N/A   Clear
12:35 PM 49.6 °F - 29.7 °F 46% 30.16 in 10.0 mi Calm Calm - N/A   Scattered Clouds
12:55 PM 50.4 °F - 28.9 °F 44% 30.15 in 10.0 mi South 4.6 mph - N/A   Mostly Cloudy
1:15 PM 50.5 °F - 28.6 °F 43% 30.15 in 10.0 mi SE 6.9 mph - N/A   Scattered Clouds
1:35 PM 52.0 °F - 29.7 °F 42% 30.14 in 10.0 mi South 5.8 mph - N/A   Clear
1:55 PM 51.1 °F - 29.3 °F 43% 30.13 in 10.0 mi Calm Calm - N/A   Scattered Clouds
2:15 PM 52.0 °F - 30.2 °F 43% 30.12 in 10.0 mi SW 6.9 mph - N/A   Mostly Cloudy
2:35 PM 54.0 °F - 32.4 °F 44% 30.12 in 10.0 mi SSW 6.9 mph - N/A   Overcast
2:55 PM 51.8 °F - 29.8 °F 43% 30.11 in 10.0 mi Calm Calm - N/A   Scattered Clouds
3:15 PM 53.4 °F - 30.6 °F 42% 30.11 in 10.0 mi SSW 4.6 mph - N/A   Scattered Clouds
3:35 PM 53.8 °F - 32.7 °F 45% 30.10 in 10.0 mi West 5.8 mph - N/A   Scattered Clouds
3:55 PM 53.1 °F - 31.6 °F 44% 30.09 in 10.0 mi SW 4.6 mph - N/A   Mostly Cloudy
4:15 PM 53.6 °F - 32.2 °F 44% 30.09 in 10.0 mi WSW 8.1 mph - N/A   Mostly Cloudy
4:35 PM 54.3 °F - 32.4 °F 43% 30.08 in 10.0 mi SW 11.5 mph - N/A   Mostly Cloudy
4:55 PM 52.9 °F - 31.6 °F 44% 30.08 in 10.0 mi SSE 3.5 mph - N/A   Mostly Cloudy
5:15 PM 53.6 °F - 31.6 °F 43% 30.07 in 10.0 mi SW 5.8 mph - N/A   Scattered Clouds
5:35 PM 54.5 °F - 32.0 °F 42% 30.07 in 10.0 mi SW 8.1 mph - N/A   Clear
5:55 PM 53.6 °F - 31.6 °F 43% 30.07 in 10.0 mi SW 4.6 mph - N/A   Scattered Clouds
6:15 PM 52.7 °F - 31.5 °F 44% 30.07 in 10.0 mi SSW 5.8 mph - N/A   Clear
6:35 PM 52.5 °F - 31.8 °F 45% 30.08 in 10.0 mi WSW 4.6 mph - N/A   Clear
6:55 PM 52.0 °F - 31.3 °F 45% 30.08 in 10.0 mi SW 6.9 mph - N/A   Clear
7:15 PM 51.4 °F - 31.8 °F 47% 30.08 in 10.0 mi WSW 4.6 mph - N/A   Clear
7:35 PM 50.7 °F - 32.0 °F 49% 30.07 in 10.0 mi Calm Calm - N/A   Clear
7:55 PM 50.4 °F - 32.0 °F 49% 30.07 in 10.0 mi Calm Calm - N/A   Clear
8:15 PM 50.5 °F - 31.8 °F 49% 30.07 in 10.0 mi Calm Calm - N/A   Clear
8:35 PM 50.0 °F - 32.0 °F 50% 30.06 in 10.0 mi Calm Calm - N/A   Clear
8:55 PM 50.0 °F - 32.0 °F 50% 30.06 in 10.0 mi Calm Calm - N/A   Clear
9:15 PM 49.1 °F - 32.0 °F 52% 30.05 in 10.0 mi Calm Calm - N/A   Clear
9:35 PM 48.9 °F - 32.0 °F 52% 30.05 in 10.0 mi SE 3.5 mph - N/A   Clear
9:55 PM 49.1 °F - 32.0 °F 52% 30.05 in 10.0 mi SE 3.5 mph - N/A   Clear
10:15 PM 48.9 °F - 32.0 °F 52% 30.04 in 10.0 mi Calm Calm - N/A   Clear
10:35 PM 49.5 °F - 32.0 °F 51% 30.04 in 10.0 mi Calm Calm - N/A   Clear
11:15 PM 47.7 °F - 32.0 °F 55% 30.03 in 10.0 mi SE 3.5 mph - N/A   Clear
11:35 PM 50.2 °F - 33.8 °F 53% 30.02 in 10.0 mi Calm Calm - N/A   Clear
11:55 PM 49.6 °F - 34.0 °F 55% 30.02 in 10.0 mi Calm Calm - N/A   Clear